Regional Weather Roundup
Issued by NWS Northern Indiana

Home | Current Version | Previous Version | Graphics & Text | Print | Product List | Glossary On
Versions: 1 2 3 4 5 6 7 8 9 10 11 12 13 14 15 16 17 18 19 20 21 22 23 24 25 26 27 28 29 30 31 32 33 34 35 36 37 38 39 40 41 42 43 44 45 46 47 48 49 50
000
ASUS43 KIWX 192200
RWRIWX

KIWX WEATHER ROUNDUP
NATIONAL WEATHER SERVICE NORTHERN INDIANA
600 PM EDT FRI SEP 19 2014

NOTE: "FAIR" INDICATES FEW OR NO CLOUDS BELOW 12,000 FEET WITH NO
SIGNIFICANT WEATHER AND/OR OBSTRUCTIONS TO VISIBILITY.

* THESE STATIONS ARE NOT UNDER NWS QUALITY CONTROL. THEY ALSO MAY NOT
  REPORT WEATHER SUCH AS PRECIPITATION OR FOG.

INZ001>027-192300-
NORTHERN INDIANA

CITY           SKY/WX    TMP DP  RH WIND       PRES   REMARKS
GARY*          MOSUNNY   75  43  31 S7        30.04F
VALPARAISO     SUNNY     73  45  36 S12       30.05F
SOUTH BEND     SUNNY     72  46  39 S12       30.07F
ELKHART*       SUNNY     70  46  43 SE9       30.08F
GOSHEN         SUNNY     71  47  42 SE10      30.08F
ANGOLA*        SUNNY     70  61  73 S7        30.10S
FORT WAYNE     PTSUNNY   69  47  45 SE6       30.11F
PERU/GRISSOM   SUNNY     71  51  47 SE12      30.07F

$$
INZ028>050-192300-
CENTRAL INDIANA

CITY           SKY/WX    TMP DP  RH WIND       PRES   REMARKS
LAFAYETTE      SUNNY     71  47  42 SE9       30.05F
KOKOMO*        SUNNY     70  46  43 S9        30.08F
MUNCIE*        SUNNY     71  16  12 SE12      30.09F
INDIANAPOLIS   MOSUNNY   72  46  39 SE9       30.07F

$$
MIZ043>046-050>051-056>058-064>065-071>073-077>080-192300-
SOUTHWEST LOWER MICHIGAN

CITY           SKY/WX    TMP DP  RH WIND       PRES   REMARKS
BATTLE CREEK   MOSUNNY   69  48  47 S10       30.08F
BENTON HARBOR  SUNNY     69  48  47 SE12G18   30.04F
COLDWATER*     SUNNY     69  49  47 S7        30.10S
HILLSDALE*     SUNNY     68  45  42 SE6       30.11S
HOLLAND        SUNNY     71  53  52 S12G22    30.04F
GRAND RAPIDS   PTSUNNY   70  53  54 S12       30.05F
KALAMAZOO      SUNNY     70  49  47 S13       30.08F
STURGIS*       SUNNY     70  48  46 S8        30.08F
THREE RIVERS*  FAIR      69  50  50 S9        30.08F

$$
OHZ001>008-015>018-024>025-192300-
NORTHWEST OHIO

CITY           SKY/WX    TMP DP  RH WIND       PRES   REMARKS
DEFIANCE       SUNNY     71  45  39 S8        30.10F
FINDLAY        SUNNY     71  45  39 S6        30.11S
TOLEDO EXPRESS SUNNY     68  47  46 E3        30.11F
TOLEDO METCALF SUNNY     66  52  60 NE9       30.13F
LIMA           SUNNY     71  46  40 SE7       30.11F

$$
&&



USA.gov is the U.S. government's official web portal to all federal, state and local government web resources and services.